sat.trackr.live / text

‹ back to catalog

STARLINK-3219

NORAD 49724 · 2021-115A

PAYLOAD ACTIVE UNKNOWN

§ Identity

Operator
Country
US
Launch date
2021-12-02
Launch site
AFETR
Launch vehicle
Mass (kg)
RCS (m²)

Purposes: comms

External: N2YO · Heavens-Above · Gunter

§ Orbital elements

Epoch: 2026-09-19T18:43:26.412384Z

Period
94.01 min
Inclination
53.1625°
Eccentricity
0.0001298
Mean motion
15.31702057 rev/d
Perigee alt
469.8 km
Apogee alt
471.6 km
Semi-major
6,848.9 km
B*
-6.3151e-6
RAAN
343.1247°
Arg perigee
83.6680°
Mean anomaly
276.4469°
Rev number
26,503

§ Raw data

STARLINK-32191 49724U 21115A   26262.78016681 -.00000561  00000+0 -63151-5 0  99952 49724  53.1625 343.1247 0001298  83.6680 276.4469 15.31702057265030

JSON: /api/v1/satellites/49724 · /tle

For live sub-satellite position, see the globe view (requires WebGL).

§ Visibility from observer

Set your observer location to see the next 7 days of passes ≥ 10°. The values pass through the URL so the page stays shareable.

No JS? Fill the form by hand. The geolocation button needs JavaScript.